GSAT0218 (GALILEO 22)

Last updated on Fri Jun 19 2026 20:04:05 GMT+0000 (Coordinated Universal Time)

1 43058U 17079D 26170.50733131 .00000026 00000+0 00000+0 0 9999 2 43058 55.0708 221.4378 0004305 273.7481 86.2815 1.70474769 53056
UTC large
Height (km)
Speed (km/s)
/
Latitude / Longitude
Inclination (degrees)
Orbital Period (minutes)
Azimuth
Elevation
Range (km)
Doppler Factor

Next 0 passes for location: London (51.5072 / 0.1276)

No passes found over London.
GSAT0218 (GALILEO 22)